Location: Leganes-MADRID
(40.3441°N, 3.7527°W)
Time: 18:36:59
(UTC+02:00)

Hubble Space Telescope - Visible Passes

Search period start: 30 March 2017 00:00
Search period end: 09 April 2017 00:00
Orbit: 538 x 542 km, 28.5° (Epoch: 28 March)

Date Brightness Start Highest point End Pass type
(mag) Time Alt. Az. Time Alt. Az. Time Alt. Az.
30 Mar 3.2 06:00:24 13° SSE 06:00:24 13° SSE 06:01:28 10° SE visible
31 Mar 3.3 05:50:55 12° SSE 05:50:55 12° SSE 05:51:30 10° SE visible
31 Mar 2.9 07:27:25 10° SW 07:29:38 14° S 07:31:52 10° SSE visible
01 Apr 3.5 05:41:27 10° SE 05:41:27 10° SE 05:41:29 10° SE visible
01 Apr 2.9 07:17:32 10° SW 07:19:30 13° S 07:21:28 10° SSE visible
02 Apr 3.0 07:07:50 10° SW 07:09:21 12° SSW 07:10:54 10° S visible
03 Apr 3.0 06:58:35 10° SSW 06:59:12 10° SSW 06:59:50 10° S visible
